Previsão horária em Alness

Hoje, 27 Janeiro, Quarta-feira

Tempo Temperatura Precipitação Vento Pressão Humidade
00:00 +2°C° 0 mm 1 m/s 747 mmHg 98%
01:00 +2°C° 0.1 mm 1 m/s 747 mmHg 98%
02:00 +2°C° 0.1 mm 1 m/s 747 mmHg 98%
03:00 +2°C° 0.1 mm 1 m/s 747 mmHg 98%
04:00 +3°C° 0.3 mm 1 m/s 747 mmHg 98%
05:00 +3°C° 0.3 mm 1 m/s 747 mmHg 98%
06:00 +3°C° 0.3 mm 1 m/s 748 mmHg 98%
07:00 +2°C° 0.1 mm 2 m/s 748 mmHg 98%
08:00 +2°C° 0.1 mm 2 m/s 749 mmHg 98%
09:00 +1°C° 0.1 mm 3 m/s 750 mmHg 97%
10:00 +2°C° 0.1 mm 2 m/s 750 mmHg 95%
11:00 +2°C° 0.1 mm 2 m/s 751 mmHg 92%
12:00 +2°C° 0.1 mm 2 m/s 751 mmHg 89%
13:00 +2°C° 0 mm 2 m/s 751 mmHg 88%
14:00 +3°C° 0 mm 1 m/s 751 mmHg 87%
15:00 +2°C° 0 mm 1 m/s 752 mmHg 86%
16:00 +2°C° 0 mm 1 m/s 752 mmHg 86%
17:00 +1°C° 0 mm 1 m/s 752 mmHg 86%
18:00 -2°C° 0 mm 2 m/s 751 mmHg 87%
19:00 -2°C° 0 mm 2 m/s 751 mmHg 86%
20:00 -2°C° 0 mm 2 m/s 751 mmHg 85%
21:00 -3°C° 0 mm 2 m/s 751 mmHg 85%
22:00 -3°C° 0 mm 2 m/s 751 mmHg 85%
23:00 -4°C° 0 mm 3 m/s 750 mmHg 85%

Amanhã, 28 Janeiro, Quinta-feira

Tempo Temperatura Precipitação Vento Pressão Humidade
00:00 -2°C° 0 mm 3 m/s 749 mmHg 85%
01:00 -2°C° 0 mm 3 m/s 748 mmHg 84%
02:00 -2°C° 0 mm 3 m/s 747 mmHg 84%
03:00 -2°C° 0 mm 3 m/s 747 mmHg 83%
04:00 -2°C° 0.1 mm 4 m/s 746 mmHg 85%
05:00 -2°C° 0.1 mm 4 m/s 745 mmHg 86%
06:00 -2°C° 0.1 mm 4 m/s 744 mmHg 87%
07:00 -2°C° 0.1 mm 4 m/s 744 mmHg 88%
08:00 -2°C° 0.1 mm 4 m/s 744 mmHg 89%
09:00 -2°C° 0.1 mm 4 m/s 744 mmHg 90%
10:00 -1°C° 0.4 mm 4 m/s 744 mmHg 92%
11:00 -1°C° 0.4 mm 4 m/s 743 mmHg 93%
12:00 -1°C° 0.4 mm 4 m/s 743 mmHg 95%
13:00 -1°C° 1 mm 4 m/s 743 mmHg 96%
14:00 -1°C° 1 mm 4 m/s 743 mmHg 97%
15:00 -1°C° 1 mm 4 m/s 742 mmHg 97%
16:00 -1°C° 1.2 mm 4 m/s 742 mmHg 97%
17:00 -1°C° 1.2 mm 4 m/s 742 mmHg 98%
18:00 -1°C° 1.2 mm 5 m/s 742 mmHg 98%
19:00 -1°C° 0.9 mm 5 m/s 742 mmHg 98%
20:00 -1°C° 0.9 mm 5 m/s 742 mmHg 98%
21:00 -1°C° 0.9 mm 5 m/s 742 mmHg 98%
22:00 -1°C° 0.7 mm 5 m/s 741 mmHg 98%
23:00 -1°C° 0.7 mm 5 m/s 741 mmHg 98%

Depois de amanhã, 29 Janeiro, Sexta-feira

Tempo Temperatura Precipitação Vento Pressão Humidade
00:00 -1°C° 0.7 mm 5 m/s 741 mmHg 98%
01:00 -1°C° 0.6 mm 5 m/s 741 mmHg 98%
02:00 -1°C° 0.6 mm 5 m/s 741 mmHg 98%
03:00 0°C° 0.6 mm 5 m/s 741 mmHg 98%
04:00 0°C° 0.8 mm 5 m/s 741 mmHg 98%
05:00 -1°C° 0.8 mm 6 m/s 741 mmHg 98%
06:00 -1°C° 0.8 mm 6 m/s 741 mmHg 97%
07:00 -1°C° 0.3 mm 6 m/s 742 mmHg 96%
08:00 -1°C° 0.3 mm 5 m/s 742 mmHg 95%
09:00 -1°C° 0.3 mm 5 m/s 743 mmHg 94%
10:00 0°C° 0.1 mm 4 m/s 744 mmHg 92%
11:00 0°C° 0.1 mm 4 m/s 744 mmHg 90%
12:00 0°C° 0.1 mm 4 m/s 745 mmHg 88%
13:00 0°C° 0 mm 4 m/s 745 mmHg 88%
14:00 0°C° 0 mm 3 m/s 745 mmHg 87%
15:00 0°C° 0 mm 3 m/s 746 mmHg 86%
16:00 -1°C° 0 mm 2 m/s 746 mmHg 86%
17:00 -2°C° 0 mm 2 m/s 747 mmHg 86%
18:00 -3°C° 0 mm 2 m/s 747 mmHg 86%
19:00 -1°C° 0 mm 1 m/s 747 mmHg 85%
20:00 -2°C° 0 mm 1 m/s 748 mmHg 85%
21:00 -2°C° 0 mm 1 m/s 748 mmHg 84%
22:00 -2°C° 0 mm 1 m/s 748 mmHg 85%
23:00 -2°C° 0 mm 1 m/s 748 mmHg 85%

30 Janeiro, Sábado

Tempo Temperatura Precipitação Vento Pressão Humidade
00:00 -3°C° 0 mm 1 m/s 747 mmHg 86%
01:00 -3°C° 0 mm 1 m/s 747 mmHg 86%
02:00 -2°C° 0 mm 1 m/s 747 mmHg 86%
03:00 -2°C° 0 mm 1 m/s 747 mmHg 87%
04:00 -2°C° 0 mm 1 m/s 747 mmHg 87%
05:00 -2°C° 0 mm 1 m/s 747 mmHg 88%
06:00 -2°C° 0 mm 1 m/s 747 mmHg 89%
07:00 -2°C° 0 mm 1 m/s 748 mmHg 89%
08:00 -2°C° 0 mm 1 m/s 748 mmHg 89%
09:00 -2°C° 0 mm 1 m/s 748 mmHg 89%
10:00 -1°C° 0 mm 1 m/s 749 mmHg 88%
11:00 +1°C° 0 mm 1 m/s 749 mmHg 88%
12:00 +2°C° 0 mm 1 m/s 749 mmHg 87%
13:00 +2°C° 0 mm 1 m/s 750 mmHg 87%
14:00 +2°C° 0 mm 1 m/s 750 mmHg 88%
15:00 +2°C° 0 mm 1 m/s 750 mmHg 88%
16:00 +1°C° 0 mm 1 m/s 750 mmHg 88%
17:00 0°C° 0 mm 1 m/s 750 mmHg 88%
18:00 -2°C° 0 mm 1 m/s 751 mmHg 87%
19:00 -2°C° 0 mm 1 m/s 751 mmHg 87%
20:00 -2°C° 0 mm 1 m/s 751 mmHg 87%
21:00 -2°C° 0 mm 1 m/s 751 mmHg 86%
22:00 -2°C° 0 mm 1 m/s 751 mmHg 87%
23:00 -3°C° 0 mm 1 m/s 751 mmHg 87%

31 Janeiro, Domingo

Tempo Temperatura Precipitação Vento Pressão Humidade
00:00 -3°C° 0 mm 1 m/s 751 mmHg 87%
01:00 -3°C° 0 mm 1 m/s 750 mmHg 87%
02:00 -3°C° 0 mm 1 m/s 750 mmHg 87%
03:00 -4°C° 0 mm 1 m/s 750 mmHg 87%
04:00 -4°C° 0 mm 1 m/s 749 mmHg 87%
05:00 -4°C° 0 mm 1 m/s 748 mmHg 87%
06:00 -4°C° 0 mm 1 m/s 748 mmHg 86%
07:00 -4°C° 0 mm 1 m/s 747 mmHg 86%
08:00 -4°C° 0 mm 1 m/s 747 mmHg 86%
09:00 -4°C° 0 mm 1 m/s 746 mmHg 86%
10:00 -2°C° 0 mm 1 m/s 746 mmHg 86%
11:00 -1°C° 0 mm 1 m/s 745 mmHg 87%
12:00 0°C° 0 mm 1 m/s 745 mmHg 87%
13:00 0°C° 0 mm 1 m/s 744 mmHg 88%
14:00 0°C° 0 mm 1 m/s 743 mmHg 89%
15:00 -1°C° 0 mm 2 m/s 743 mmHg 90%
16:00 -2°C° 0 mm 2 m/s 742 mmHg 90%
17:00 -2°C° 0 mm 2 m/s 742 mmHg 90%
18:00 -3°C° 0 mm 2 m/s 742 mmHg 91%
19:00 -3°C° 0 mm 2 m/s 742 mmHg 91%
20:00 -2°C° 0 mm 3 m/s 742 mmHg 91%
21:00 -2°C° 0 mm 3 m/s 741 mmHg 91%
22:00 -2°C° 0 mm 3 m/s 741 mmHg 91%
23:00 -2°C° 0 mm 3 m/s 741 mmHg 90%

1 Fevereiro, Segunda-feira

Tempo Temperatura Precipitação Vento Pressão Humidade
00:00 -2°C° 0 mm 4 m/s 741 mmHg 90%
01:00 -2°C° 0 mm 4 m/s 740 mmHg 90%
02:00 -2°C° 0 mm 4 m/s 739 mmHg 89%
03:00 -2°C° 0 mm 4 m/s 739 mmHg 89%
04:00 -1°C° 0 mm 5 m/s 738 mmHg 89%
05:00 -1°C° 0 mm 5 m/s 738 mmHg 88%
06:00 -2°C° 0 mm 6 m/s 737 mmHg 88%
07:00 -2°C° 0.4 mm 6 m/s 737 mmHg 89%
08:00 -2°C° 0.4 mm 6 m/s 736 mmHg 90%
09:00 -2°C° 0.4 mm 6 m/s 736 mmHg 92%
10:00 -1°C° 0.6 mm 6 m/s 736 mmHg 92%
11:00 -1°C° 0.6 mm 6 m/s 736 mmHg 93%
12:00 -1°C° 0.6 mm 6 m/s 735 mmHg 94%
13:00 0°C° 0.4 mm 5 m/s 735 mmHg 95%
14:00 0°C° 0.4 mm 4 m/s 734 mmHg 96%
15:00 0°C° 0.4 mm 4 m/s 734 mmHg 97%
16:00 0°C° 0.2 mm 4 m/s 733 mmHg 97%
17:00 +1°C° 0.2 mm 3 m/s 733 mmHg 97%
18:00 +1°C° 0.2 mm 3 m/s 733 mmHg 97%
19:00 +1°C° 0.1 mm 3 m/s 732 mmHg 97%
20:00 +1°C° 0.1 mm 3 m/s 732 mmHg 97%
21:00 +2°C° 0.1 mm 2 m/s 732 mmHg 97%
22:00 +2°C° 0.2 mm 2 m/s 732 mmHg 97%
23:00 +3°C° 0.2 mm 1 m/s 732 mmHg 97%
Mostrar mais

Necessitamos do seu Consentimento

A Meteoprog e os seus Fornecedores de Serviços podem armazenar e aceder a dados pessoais como cookies, identificadores do dispositivo ou outras tecnologias semelhantes existentes no seu dispositivo e processar estes dados para personalizar conteúdos e anúncios, assim como funcionalidades nas redes sociais e análise de tráfego.

  • Armazenar e/ou aceder a informações no seu dispositivo

    Os cookies, identificadores do dispositivo ou outras informações podem ser armazenados ou acedidos no seu dispositivo, para os fins acima indicados.

  • Anúncios e conteúdos personalizados, medição de anúncios e conteúdos, dados sobre o público-alvo e desenvolvimento de produtos

    Os anúncios e os conteúdos podem ser personalizados com base num perfil. Podem ser adicionados dados adicionais para uma maior personalização dos anúncios e dos conteúdos. A eficácia dos anúncios e dos conteúdos pode ser medida. Podem ser obtidas informações sobre o público que visualizou os anúncios e os conteúdos. Estes dados podem ser usados para desenvolver ou melhorar sistemas, softwares ou a experiência do utilizador.

Ao clicar em "Eu concordo”, permitirá o uso de cookies, identificadores do dispositivo e web beacons mencionados ou outras tecnologias semelhantes. As configurações do navegador do seu dispositivo podem ser alteradas.

Para certos fins, podem ser invocados interesses legítimos ao invés de consentimento. Pode ler mais informação sobre este assunto na nossa Política de Privacidade e Cookies.